Find Starlink 35511

NORAD ID: 66344 Int'l Des: 2025-253 Owner: SPXS Country: US Constellation: starlink operational
LEOCIRCULAR

現在のビュー

3D地球を読み込み中...

About Starlink 35511

Starlink 35511 (NORAD 66344) is a starlink constellation satellite (v2 mini) launched Nov 6, 2025 by SPXS of US. It operates in LEO, CIRCULAR orbit with a mass of 575.00 kg.

Starlink 35511について

説明を読み込み中...

次回通過

Passes for default location (London). Set your location on the main map for personalized predictions.

高度履歴

Loading altitude history...

軌道要素

1 66344U 25253AB 26174.90907621 .00022035 00000-0 80733-3 0 9990
2 66344 43.0017 332.2622 0001778 271.3161 88.7487 15.27601277 36496
Epoch: Jun 23, 2026 • Age: 15 hours

現在のステータス

高度 483.9 km
速度 7.63 km/s
衛星直下点 27.06°N, 14.95°E
打ち上げ日 Nov 6, 2025
運用期間 0.6 years
タイプ internet

技術仕様

分類 Payload
質量 575.00 kg
乾燥質量 530.00 kg
総質量 575.00 kg
長さ 0.30 m
直径 4.10 m
スパン 29.00 m
形状 Box + pan
製造者 SPXS
バスタイプ Starlink V2MO
フェーズステータス In Orbit
所有者/国 SPXS/US

Most Searched